Time,TemperatureF,DewpointF,PressureIn,WindDirection,WindDirectionDegrees,WindSpeedMPH,WindSpeedGustMPH,Humidity,HourlyPrecipIn,Conditions,Clouds,dailyrainin,SoftwareType,DateUTC
2013-05-15 21:30:00,76.0,69.0,29.87,SSE,158,5.0,17.0,79,0.00,,FEW027,0.17,VWS V14.01,2013-05-16 02:30:00,
2013-05-15 21:53:00,75.4,68.8,29.88,SSE,161,0.0,5.0,80,0.00,,FEW027,0.17,VWS V14.01,2013-05-16 02:53:00,
2013-05-15 21:58:00,75.4,68.8,29.88,South,174,4.0,15.0,80,0.00,,OVC017,0.17,VWS V14.01,2013-05-16 02:58:00,
2013-05-15 22:03:00,75.3,68.7,29.88,SSE,147,0.0,9.0,80,0.00,,OVC017,0.17,VWS V14.01,2013-05-16 03:03:00,
2013-05-15 22:08:00,75.3,68.7,29.88,SW,234,7.0,13.0,80,0.00,,OVC017,0.17,VWS V14.01,2013-05-16 03:08:00,
2013-05-15 22:13:00,75.3,69.1,29.88,SSE,167,0.0,14.0,81,0.00,,OVC017,0.17,VWS V14.01,2013-05-16 03:13:00,
2013-05-15 22:18:00,75.1,68.9,29.89,South,174,0.0,14.0,81,0.00,,OVC017,0.17,VWS V14.01,2013-05-16 03:18:00,
2013-05-15 22:23:00,75.1,68.9,29.89,SE,131,10.0,10.0,81,0.00,,OVC017,0.17,VWS V14.01,2013-05-16 03:23:00,
2013-05-15 22:28:00,74.9,68.7,29.89,SSE,155,1.0,10.0,81,0.00,,OVC017,0.17,VWS V14.01,2013-05-16 03:28:00,
2013-05-15 22:33:00,74.9,68.7,29.90,SSE,168,6.0,13.0,81,0.00,,OVC017,0.17,VWS V14.01,2013-05-16 03:33:00,
2013-05-15 22:38:00,74.7,68.5,29.90,SE,137,0.0,14.0,81,0.00,,OVC017,0.17,VWS V14.01,2013-05-16 03:38:00,
2013-05-15 22:44:00,74.7,68.5,29.90,SW,221,4.0,13.0,81,0.00,,OVC017,0.17,VWS V14.01,2013-05-16 03:44:00,
2013-05-15 22:49:00,74.7,68.5,29.90,South,175,2.0,13.0,81,0.00,,OVC017,0.17,VWS V14.01,2013-05-16 03:49:00,
2013-05-15 22:54:00,74.7,68.5,29.90,SSE,150,0.0,7.0,81,0.00,,OVC017,0.17,VWS V14.01,2013-05-16 03:54:00,
2013-05-15 22:59:00,74.7,68.5,29.90,SSE,158,3.0,12.0,81,0.00,,OVC015,0.17,VWS V14.01,2013-05-16 03:59:00,
2013-05-15 23:01:00,74.7,68.5,29.90,South,171,3.0,12.0,81,0.00,,OVC015,0.17,VWS V14.01,2013-05-16 04:01:00,
2013-05-15 23:06:00,74.7,68.5,29.91,South,169,4.0,13.0,81,0.00,,OVC015,0.17,VWS V14.01,2013-05-16 04:06:00,
2013-05-15 23:11:00,74.6,68.4,29.91,SE,142,10.0,19.0,81,0.00,,OVC015,0.17,VWS V14.01,2013-05-16 04:11:00,
2013-05-15 23:16:00,74.6,68.4,29.89,SSE,157,6.0,12.0,81,0.00,,OVC015,0.17,VWS V14.01,2013-05-16 04:16:00,
2013-05-15 23:21:00,74.6,68.8,29.89,South,190,7.0,12.0,82,0.00,,OVC015,0.17,VWS V14.01,2013-05-16 04:21:00,
2013-05-15 23:26:00,74.4,68.6,29.89,South,177,5.0,12.0,82,0.00,,OVC015,0.17,VWS V14.01,2013-05-16 04:26:00,
2013-05-15 23:31:00,74.4,68.6,29.89,SSW,201,3.0,12.0,82,0.00,,OVC015,0.17,VWS V14.01,2013-05-16 04:31:00,
2013-05-15 23:36:00,74.4,68.6,29.89,SE,126,10.0,11.0,82,0.00,,OVC013,0.17,VWS V14.01,2013-05-16 04:36:00,
2013-05-15 23:41:00,74.4,68.6,29.89,SSE,163,5.0,13.0,82,0.00,,OVC013,0.17,VWS V14.01,2013-05-16 04:41:00,
2013-05-15 23:46:00,74.4,68.6,29.89,ESE,120,5.0,18.0,82,0.00,,OVC013,0.17,VWS V14.01,2013-05-16 04:46:00,
2013-05-15 23:51:00,74.4,68.6,29.89,South,189,1.0,18.0,82,0.00,,OVC013,0.17,VWS V14.01,2013-05-16 04:51:00,
2013-05-15 23:56:00,74.4,68.6,29.89,South,171,6.0,7.0,82,0.00,,OVC013,0.17,VWS V14.01,2013-05-16 04:56:00,